Temp
24 24 24 24 24 24 24 24 24 24 24 24 24 24 24 24 24 25 25 25 25 25
24 24 24 24 24 24 24 24 24 24 24 24 24 23 24 24 24 24 24 25 25 25
23 24 24 24 24 24 24 23 24 24 24 24 24 23 23 23 23 23 24 24 24 25
23 23 23 23 24 24 23 23 23 24 23 24 24 23 23 23 23 23 23 23 24 24
22 22 22 22 23 23 24 24 24 24 23 23 23 23 23 23 24 23 23 23 23 24
20 21 22 22 23 23 23 23 23 24 24 24 23 23 23 23 24 24 24 23 23 24
19 20 20 21 22 22 23 23 23 24 24 23 23 23 23 23 23 24 24 24 24 24
19 19 20 20 20 21 21 21 22 23 23 23 23 23 23 23 23 24 24 24 23 24
17 18 19 19 20 20 20 20 21 22 22 22 22 21 21 22 23 23 23 23 24 24
16 16 17 18 18 19 19 19 20 20 20 20 20 20 22 23 23 23 23 23 23 23
15 15 15 15 16 16 17 18 18 19 19 20 19 19 19 21 23 23 23 23 23 23
14 14 15 15 16 16 17 17 17 18 18 18 17 18 20 20 20 21 22 22 22 22
13 13 14 14 15 15 16 16 17 16 16 17 17 17 17 18 18 18 18 20 20 20
12 12 13 13 14 14 14 15 15 15 15 15 15 15 17 17 16 16 17 17 18 18
Height
864 865 867 868 870 872 874 875 878 880 881 883 885 886 887 888 889 890 891 892 892 892
863 864 865 867 869 870 873 874 876 878 879 881 883 885 886 887 888 889 889 890 892 892
862 864 865 866 868 869 871 873 874 875 877 879 880 883 883 885 886 887 889 889 890 891
861 863 864 865 866 868 869 871 872 873 874 876 877 880 881 882 884 885 886 886 887 888
858 861 861 863 864 866 868 869 869 870 872 873 875 876 878 879 882 883 883 883 884 885
857 858 858 859 861 862 864 866 867 868 869 870 872 873 875 877 879 879 880 881 881 882
857 856 856 857 859 859 861 862 864 866 867 868 870 871 873 874 875 876 877 878 878 879
851 853 855 855 858 859 859 860 861 863 865 866 867 868 870 870 871 872 872 873 875 876
848 848 853 855 857 858 858 860 860 860 861 862 864 864 866 867 867 868 869 869 869 870
849 851 852 855 859 858 858 858 858 859 859 860 860 860 860 861 862 863 864 864 865 865
853 854 855 857 857 859 856 857 857 857 858 859 859 859 858 856 857 857 858 859 860 860
856 856 857 857 856 854 854 856 857 856 855 858 857 854 854 854 853 853 853 854 855 855
857 856 855 856 856 856 857 856 856 857 853 856 857 854 853 852 853 850 851 850 851 851
856 856 857 857 856 857 858 857 856 857 855 856 853 855 852 853 853 852 850 850 848 846
Wind_Speed
17 13 11 9 7 10 14 11 12 12 12 12 9 7 8 9 8 6 3 3 4 4
16 14 13 10 9 9 12 11 12 11 11 14 13 9 9 10 10 9 8 6 5 5
17 14 12 11 10 10 13 13 15 13 14 12 15 13 12 11 11 10 8 7 7 7
18 17 15 13 11 11 10 10 14 13 13 14 14 14 13 13 12 11 10 10 9 9
16 16 15 15 13 11 11 11 11 12 12 13 14 15 14 13 13 12 11 10 10 10
7 13 12 13 14 13 13 13 13 13 13 11 12 13 13 15 15 15 14 10 11 12
10 8 5 3 2 5 7 10 12 12 12 12 12 12 16 17 16 14 14 12 11 11
8 7 7 6 2 2 2 3 4 8 11 11 13 13 14 15 16 17 16 15 14 15
7 7 2 5 5 3 4 3 5 3 7 9 10 13 14 16 17 18 17 18 16 17
7 6 5 4 3 4 6 5 5 6 7 5 4 8 12 14 16 18 19 18 18 18
13 11 7 5 5 3 4 5 6 8 9 9 12 11 9 11 15 17 19 19 19 20
10 9 9 9 8 9 8 6 6 4 9 12 12 10 9 10 8 12 14 17 19 19
9 9 10 9 9 9 8 8 6 8 7 12 11 13 16 12 9 9 10 11 11 12
8 9 9 8 8 8 7 8 10 9 9 8 9 9 10 13 16 16 13 10 6 5
Wind_Direction
216 219 221 221 224 218 220 214 211 231 231 227 236 239 229 222 218 226 253 315 339 3
215 222 223 225 241 241 219 218 217 223 226 235 235 236 232 231 225 233 247 259 285 301
221 226 228 231 249 252 238 243 231 232 236 236 232 235 238 240 233 234 243 249 252 271
233 231 236 244 256 269 248 253 253 248 242 243 233 237 245 235 242 244 245 247 249 252
235 233 237 250 258 262 270 284 284 259 250 250 245 240 243 234 241 247 246 250 256 258
216 228 230 240 250 253 266 267 270 282 264 244 249 246 246 243 248 253 249 248 256 263
89 91 105 126 227 234 252 259 258 261 272 267 270 263 256 258 255 261 260 261 259 267
172 71 64 84 123 84 43 277 259 260 259 265 270 273 271 260 263 263 264 269 275 272
205 194 118 75 81 104 97 78 61 45 266 263 267 278 275 278 277 274 272 274 278 280
135 135 141 145 87 78 65 57 49 30 29 353 305 302 268 264 262 269 273 273 278 281
91 95 96 87 89 70 47 31 35 45 33 25 24 7 343 287 269 261 261 265 271 274
81 81 74 64 55 48 42 31 26 38 53 47 62 21 334 321 302 277 270 266 266 270
65 61 62 56 55 52 45 47 55 59 75 84 64 46 41 36 8 338 309 291 294 293
66 57 56 57 60 61 71 75 75 69 71 74 64 32 28 22 20 16 6 2 359 357